| time (UTC) | temp F | wind direction | speed MPH | gust MPH | rain 1hr in | rain 24hr in | rain mn in | humidity % | barometer mb |
| 20260504060139 | 57 | 229 | 2.0 | 4.0 | 0.00 | 0.00 | 0.00 | 51 | 1011.5 |
| 20260504050529 | 60 | 242 | 3.0 | 5.0 | 0.00 | 0.00 | 0.00 | 47 | 1011.6 |
| 20260504050132 | 60 | 228 | 3.0 | 5.0 | 0.00 | 0.00 | 0.00 | 45 | 1011.7 |
| 20260504045537 | 60 | 225 | 3.0 | 7.0 | 0.00 | 0.00 | 0.00 | 44 | 1011.6 |
| 20260504045015 | 60 | 246 | 4.0 | 6.0 | 0.00 | 0.00 | 0.00 | 44 | 1011.5 |
| 20260504044608 | 60 | 229 | 4.0 | 6.0 | 0.00 | 0.00 | 0.00 | 45 | 1011.4 |
| 20260504044021 | 60 | 244 | 3.0 | 5.0 | 0.00 | 0.00 | 0.00 | 46 | 1011.4 |
| 20260504043522 | 60 | 243 | 3.0 | 5.0 | 0.00 | 0.00 | 0.00 | 46 | 1011.4 |
| 20260504043145 | 61 | 234 | 3.0 | 5.0 | 0.00 | 0.00 | 0.00 | 45 | 1011.4 |
| 20260504042532 | 61 | 225 | 3.0 | 5.0 | 0.00 | 0.00 | 0.00 | 44 | 1011.4 |
| 20260504042039 | 61 | 238 | 3.0 | 5.0 | 0.00 | 0.00 | 0.00 | 45 | 1011.2 |
| 20260504041539 | 61 | 236 | 2.0 | 4.0 | 0.00 | 0.00 | 0.00 | 45 | 1011.2 |
| 20260504041021 | 62 | 244 | 2.0 | 4.0 | 0.00 | 0.00 | 0.00 | 44 | 1011.2 |
| 20260504040531 | 62 | 248 | 2.0 | 4.0 | 0.00 | 0.00 | 0.00 | 43 | 1011.1 |
| 20260504040039 | 62 | 238 | 2.0 | 4.0 | 0.00 | 0.00 | 0.00 | 43 | 1011.2 |
| 20260504035518 | 63 | 234 | 2.0 | 5.0 | 0.00 | 0.00 | 0.00 | 42 | 1011.1 |
| 20260504035031 | 63 | 221 | 3.0 | 4.0 | 0.00 | 0.00 | 0.00 | 41 | 1011.1 |
| 20260504034535 | 64 | 243 | 2.0 | 4.0 | 0.00 | 0.00 | 0.00 | 41 | 1011.0 |
| 20260504034024 | 64 | 232 | 2.0 | 4.0 | 0.00 | 0.00 | 0.00 | 40 | 1010.9 |
| 20260504033530 | 65 | 237 | 2.0 | 5.0 | 0.00 | 0.00 | 0.00 | 37 | 1010.9 |
| 20260504033039 | 66 | 219 | 3.0 | 5.0 | 0.00 | 0.00 | 0.00 | 37 | 1010.8 |
| 20260504032515 | 67 | 225 | 3.0 | 5.0 | 0.00 | 0.00 | 0.00 | 36 | 1010.7 |
| 20260504032035 | 67 | 222 | 2.0 | 5.0 | 0.00 | 0.00 | 0.00 | 34 | 1010.7 |
| 20260504031629 | 67 | 229 | 1.0 | 4.0 | 0.00 | 0.00 | 0.00 | 34 | 1010.5 |
| 20260504031038 | 67 | 214 | 2.0 | 5.0 | 0.00 | 0.00 | 0.00 | 33 | 1010.4 |
| 20260504030539 | 67 | 244 | 1.0 | 5.0 | 0.00 | 0.00 | 0.00 | 35 | 1010.5 |
| 20260504030131 | 67 | 227 | 3.0 | 5.0 | 0.00 | 0.00 | 0.00 | 33 | 1010.3 |
| 20260504025522 | 66 | 225 | 3.0 | 4.0 | 0.00 | 0.00 | 0.00 | 37 | 1010.2 |
| 20260504025024 | 67 | 238 | 0.0 | 5.0 | 0.00 | 0.00 | 0.00 | 38 | 1010.1 |
| 20260504024558 | 67 | 221 | 3.0 | 5.0 | 0.00 | 0.00 | 0.00 | 37 | 1010.1 |
| 20260504024033 | 67 | 227 | 3.0 | 5.0 | 0.00 | 0.00 | 0.00 | 36 | 1010.1 |
| 20260504023533 | 68 | 231 | 2.0 | 6.0 | 0.00 | 0.00 | 0.00 | 37 | 1010.2 |
| 20260504023125 | 68 | 227 | 2.0 | 6.0 | 0.00 | 0.00 | 0.00 | 37 | 1010.1 |
| 20260504022533 | 68 | 235 | 3.0 | 5.0 | 0.00 | 0.00 | 0.00 | 36 | 1010.1 |
| 20260504022030 | 69 | 228 | 3.0 | 5.0 | 0.00 | 0.00 | 0.00 | 35 | 1010.1 |
| 20260504021606 | 69 | 239 | 2.0 | 5.0 | 0.00 | 0.00 | 0.00 | 35 | 1009.9 |
| 20260504021016 | 70 | 222 | 2.0 | 5.0 | 0.00 | 0.00 | 0.00 | 34 | 1010.0 |
| 20260504020527 | 70 | 228 | 2.0 | 5.0 | 0.00 | 0.00 | 0.00 | 34 | 1010.1 |
| 20260504020052 | 70 | 217 | 3.0 | 5.0 | 0.00 | 0.00 | 0.00 | 33 | 1010.2 |
| 20260504015523 | 71 | 215 | 3.0 | 6.0 | 0.00 | 0.00 | 0.00 | 33 | 1010.2 |
| 20260504015030 | 71 | 248 | 2.0 | 6.0 | 0.00 | 0.00 | 0.00 | 32 | 1010.3 |
| 20260504014627 | 71 | 248 | 2.0 | 7.0 | 0.00 | 0.00 | 0.00 | 30 | 1010.2 |
| 20260504014015 | 72 | 236 | 2.0 | 7.0 | 0.00 | 0.00 | 0.00 | 31 | 1010.3 |
| 20260504013515 | 72 | 234 | 2.0 | 7.0 | 0.00 | 0.00 | 0.00 | 29 | 1010.2 |
| 20260504013113 | 73 | 225 | 2.0 | 7.0 | 0.00 | 0.00 | 0.00 | 28 | 1010.3 |
| 20260504012533 | 74 | 254 | 2.0 | 4.0 | 0.00 | 0.00 | 0.00 | 28 | 1010.2 |
| 20260504012022 | 75 | 248 | 2.0 | 4.0 | 0.00 | 0.00 | 0.00 | 27 | 1010.5 |
| 20260504011600 | 76 | 232 | 1.0 | 4.0 | 0.00 | 0.00 | 0.00 | 27 | 1010.4 |
| 20260504011027 | 75 | 227 | 2.0 | 4.0 | 0.00 | 0.00 | 0.00 | 23 | 1010.5 |
| 20260504010524 | 76 | 235 | 1.0 | 4.0 | 0.00 | 0.00 | 0.00 | 28 | 1010.7 |
| 20260504010130 | 77 | 243 | 1.0 | 3.0 | 0.00 | 0.00 | 0.00 | 26 | 1010.7 |
| 20260504005533 | 78 | 257 | 1.0 | 4.0 | 0.00 | 0.00 | 0.00 | 26 | 1010.9 |
| 20260504005039 | 79 | 240 | 1.0 | 4.0 | 0.00 | 0.00 | 0.00 | 24 | 1010.9 |
| 20260504004628 | 80 | 340 | 0.0 | 3.0 | 0.00 | 0.00 | 0.00 | 21 | 1010.9 |
| 20260504004030 | 80 | 263 | 1.0 | 3.0 | 0.00 | 0.00 | 0.00 | 23 | 1010.9 |
| 20260504003533 | 81 | 304 | 1.0 | 3.0 | 0.00 | 0.00 | 0.00 | 18 | 1011.0 |
| 20260504003110 | 82 | 319 | 1.0 | 3.0 | 0.00 | 0.00 | 0.00 | 21 | 1011.1 |
| 20260504002515 | 82 | 360 | 1.0 | 4.0 | 0.00 | 0.00 | 0.00 | 18 | 1011.3 |
| 20260504002014 | 83 | 266 | 0.0 | 4.0 | 0.00 | 0.00 | 0.00 | 20 | 1011.3 |
| 20260504001612 | 83 | 257 | 1.0 | 5.0 | 0.00 | 0.00 | 0.00 | 22 | 1011.3 |
| 20260504001033 | 83 | 282 | 2.0 | 5.0 | 0.00 | 0.00 | 0.00 | 16 | 1011.4 |
| 20260504000515 | 83 | 302 | 1.0 | 6.0 | 0.00 | 0.00 | 0.00 | 18 | 1011.4 |
| 20260504000056 | 83 | 14 | 2.0 | 6.0 | 0.00 | 0.00 | 0.00 | 16 | 1011.4 |
| 20260503235547 | 84 | 344 | 2.0 | 5.0 | 0.00 | 0.00 | 0.00 | 17 | 1011.3 |
| 20260503235021 | 84 | 315 | 0.0 | 4.0 | 0.00 | 0.00 | 0.00 | 16 | 1011.4 |
| 20260503234608 | 84 | 229 | 1.0 | 8.0 | 0.00 | 0.00 | 0.00 | 16 | 1011.4 |
| 20260503234021 | 84 | 337 | 3.0 | 8.0 | 0.00 | 0.00 | 0.00 | 16 | 1011.4 |
| 20260503233535 | 84 | 346 | 1.0 | 7.0 | 0.00 | 0.00 | 0.00 | 16 | 1011.4 |
| 20260503233115 | 84 | 180 | 2.0 | 7.0 | 0.00 | 0.00 | 0.00 | 16 | 1011.5 |
| 20260503232537 | 84 | 45 | 1.0 | 4.0 | 0.00 | 0.00 | 0.00 | 15 | 1011.6 |
| 20260503232024 | 84 | 294 | 1.0 | 5.0 | 0.00 | 0.00 | 0.00 | 17 | 1011.6 |
| 20260503231612 | 85 | 44 | 1.0 | 5.0 | 0.00 | 0.00 | 0.00 | 17 | 1011.7 |
| 20260503231022 | 84 | 246 | 2.0 | 4.0 | 0.00 | 0.00 | 0.00 | 18 | 1011.8 |
| 20260503230529 | 84 | 9 | 1.0 | 4.0 | 0.00 | 0.00 | 0.00 | 15 | 1011.9 |
| 20260503230138 | 84 | 241 | 2.0 | 10.0 | 0.00 | 0.00 | 0.00 | 16 | 1011.9 |
| 20260503225525 | 84 | 18 | 3.0 | 10.0 | 0.00 | 0.00 | 0.00 | 17 | 1011.9 |
| 20260503225028 | 84 | 234 | 2.0 | 7.0 | 0.00 | 0.00 | 0.00 | 16 | 1012.0 |
| 20260503224558 | 84 | 95 | 2.0 | 7.0 | 0.00 | 0.00 | 0.00 | 15 | 1012.0 |
| 20260503224017 | 84 | 227 | 2.0 | 5.0 | 0.00 | 0.00 | 0.00 | 17 | 1012.2 |
| 20260503223533 | 84 | 334 | 2.0 | 6.0 | 0.00 | 0.00 | 0.00 | 15 | 1012.2 |
| 20260503223111 | 84 | 5 | 1.0 | 6.0 | 0.00 | 0.00 | 0.00 | 17 | 1012.4 |
| 20260503222524 | 84 | 278 | 0.0 | 5.0 | 0.00 | 0.00 | 0.00 | 17 | 1012.5 |
| 20260503222024 | 84 | 237 | 2.0 | 7.0 | 0.00 | 0.00 | 0.00 | 16 | 1012.6 |
| 20260503221630 | 84 | 286 | 1.0 | 11.0 | 0.00 | 0.00 | 0.00 | 16 | 1012.7 |
| 20260503221024 | 84 | 360 | 4.0 | 11.0 | 0.00 | 0.00 | 0.00 | 14 | 1012.8 |
| 20260503220524 | 84 | 300 | 2.0 | 5.0 | 0.00 | 0.00 | 0.00 | 17 | 1012.8 |
| 20260503220127 | 83 | 352 | 2.0 | 5.0 | 0.00 | 0.00 | 0.00 | 17 | 1012.9 |
| 20260503215531 | 83 | 348 | 3.0 | 6.0 | 0.00 | 0.00 | 0.00 | 15 | 1012.9 |
| 20260503215023 | 83 | 309 | 3.0 | 9.0 | 0.00 | 0.00 | 0.00 | 15 | 1013.0 |
| 20260503214637 | 83 | 23 | 3.0 | 9.0 | 0.00 | 0.00 | 0.00 | 15 | 1013.0 |
| 20260503214019 | 83 | 288 | 1.0 | 6.0 | 0.00 | 0.00 | 0.00 | 17 | 1013.1 |
| 20260503213519 | 83 | 345 | 1.0 | 8.0 | 0.00 | 0.00 | 0.00 | 17 | 1013.2 |
| 20260503213121 | 83 | 300 | 2.0 | 9.0 | 0.00 | 0.00 | 0.00 | 17 | 1013.3 |
| 20260503212543 | 83 | 33 | 3.0 | 9.0 | 0.00 | 0.00 | 0.00 | 16 | 1013.3 |
| 20260503212024 | 84 | 289 | 1.0 | 4.0 | 0.00 | 0.00 | 0.00 | 15 | 1013.3 |
| 20260503211554 | 84 | 323 | 2.0 | 4.0 | 0.00 | 0.00 | 0.00 | 17 | 1013.4 |
| 20260503211031 | 83 | 306 | 2.0 | 4.0 | 0.00 | 0.00 | 0.00 | 18 | 1013.4 |
| 20260503210525 | 83 | 35 | 1.0 | 4.0 | 0.00 | 0.00 | 0.00 | 19 | 1013.4 |
| 20260503210149 | 83 | 252 | 1.0 | 7.0 | 0.00 | 0.00 | 0.00 | 16 | 1013.4 |
| 20260503205541 | 82 | 339 | 2.0 | 5.0 | 0.00 | 0.00 | 0.00 | 18 | 1013.4 |
| 20260503205038 | 82 | 125 | 1.0 | 7.0 | 0.00 | 0.00 | 0.00 | 15 | 1013.4 |
| 20260503204623 | 82 | 227 | 2.0 | 7.0 | 0.00 | 0.00 | 0.00 | 17 | 1013.6 |
| 20260503204037 | 82 | 12 | 1.0 | 6.0 | 0.00 | 0.00 | 0.00 | 16 | 1013.6 |
| 20260503203536 | 83 | 5 | 2.0 | 5.0 | 0.00 | 0.00 | 0.00 | 16 | 1013.8 |
| 20260503203110 | 82 | 20 | 2.0 | 9.0 | 0.00 | 0.00 | 0.00 | 18 | 1013.7 |
| 20260503202515 | 82 | 296 | 2.0 | 9.0 | 0.00 | 0.00 | 0.00 | 16 | 1013.7 |
| 20260503202031 | 82 | 317 | 2.0 | 7.0 | 0.00 | 0.00 | 0.00 | 17 | 1014.0 |
| 20260503201656 | 82 | 85 | 0.0 | 4.0 | 0.00 | 0.00 | 0.00 | 16 | 1014.1 |
| 20260503201032 | 81 | 114 | 0.0 | 6.0 | 0.00 | 0.00 | 0.00 | 19 | 1014.1 |
| 20260503200516 | 81 | 334 | 4.0 | 6.0 | 0.00 | 0.00 | 0.00 | 18 | 1014.2 |
| 20260503200141 | 81 | 37 | 1.0 | 6.0 | 0.00 | 0.00 | 0.00 | 17 | 1014.2 |
| 20260503195523 | 81 | 360 | 3.0 | 6.0 | 0.00 | 0.00 | 0.00 | 17 | 1014.3 |
| 20260503195024 | 81 | 304 | 0.0 | 7.0 | 0.00 | 0.00 | 0.00 | 18 | 1014.6 |
| 20260503194631 | 81 | 88 | 1.0 | 7.0 | 0.00 | 0.00 | 0.00 | 19 | 1014.4 |
| 20260503194030 | 81 | 232 | 1.0 | 5.0 | 0.00 | 0.00 | 0.00 | 17 | 1014.6 |
| 20260503193613 | 81 | 190 | 2.0 | 8.0 | 0.00 | 0.00 | 0.00 | 18 | 1014.7 |
| 20260503193135 | 80 | 205 | 2.0 | 8.0 | 0.00 | 0.00 | 0.00 | 17 | 1014.7 |
| 20260503192531 | 80 | 334 | 1.0 | 5.0 | 0.00 | 0.00 | 0.00 | 19 | 1014.7 |
| 20260503192029 | 80 | 123 | 2.0 | 4.0 | 0.00 | 0.00 | 0.00 | 16 | 1014.7 |
| 20260503191638 | 80 | 360 | 2.0 | 6.0 | 0.00 | 0.00 | 0.00 | 17 | 1014.6 |
| 20260503191024 | 80 | 319 | 2.0 | 9.0 | 0.00 | 0.00 | 0.00 | 18 | 1015.0 |
| 20260503190530 | 79 | 330 | 1.0 | 9.0 | 0.00 | 0.00 | 0.00 | 19 | 1014.9 |
| 20260503190059 | 79 | 138 | 3.0 | 8.0 | 0.00 | 0.00 | 0.00 | 18 | 1015.0 |
| 20260503185541 | 79 | 230 | 2.0 | 4.0 | 0.00 | 0.00 | 0.00 | 18 | 1015.1 |
| 20260503185028 | 78 | 344 | 1.0 | 5.0 | 0.00 | 0.00 | 0.00 | 24 | 1015.0 |
| 20260503184645 | 79 | 87 | 2.0 | 5.0 | 0.00 | 0.00 | 0.00 | 23 | 1015.1 |
| 20260503184030 | 78 | 178 | 1.0 | 3.0 | 0.00 | 0.00 | 0.00 | 26 | 1015.1 |
| 20260503183522 | 77 | 11 | 1.0 | 3.0 | 0.00 | 0.00 | 0.00 | 30 | 1015.3 |
| 20260503183137 | 77 | 125 | 2.0 | 3.0 | 0.00 | 0.00 | 0.00 | 29 | 1015.5 |
| 20260503182521 | 77 | 32 | 1.0 | 3.0 | 0.00 | 0.00 | 0.00 | 32 | 1015.4 |
| 20260503182028 | 76 | 91 | 1.0 | 3.0 | 0.00 | 0.00 | 0.00 | 32 | 1015.2 |
| 20260503181653 | 76 | 96 | 1.0 | 3.0 | 0.00 | 0.00 | 0.00 | 33 | 1015.5 |
| 20260503181024 | 75 | 43 | 0.0 | 5.0 | 0.00 | 0.00 | 0.00 | 31 | 1015.4 |
| 20260503180526 | 75 | 130 | 2.0 | 5.0 | 0.00 | 0.00 | 0.00 | 33 | 1015.6 |
| 20260503180112 | 74 | 55 | 1.0 | 5.0 | 0.00 | 0.00 | 0.00 | 32 | 1015.8 |
| 20260503175533 | 73 | 101 | 2.0 | 4.0 | 0.00 | 0.00 | 0.00 | 35 | 1015.8 |
| 20260503175038 | 73 | 213 | 2.0 | 5.0 | 0.00 | 0.00 | 0.00 | 34 | 1015.8 |
| 20260503174653 | 72 | 150 | 1.0 | 4.0 | 0.00 | 0.00 | 0.00 | 34 | 1015.9 |
| 20260503174022 | 72 | 195 | 1.0 | 3.0 | 0.00 | 0.00 | 0.00 | 34 | 1016.0 |
| 20260503173518 | 72 | 158 | 1.0 | 4.0 | 0.00 | 0.00 | 0.00 | 35 | 1016.1 |
| 20260503173215 | 71 | 107 | 1.0 | 3.0 | 0.00 | 0.00 | 0.00 | 35 | 1016.2 |
| 20260503172519 | 71 | 222 | 1.0 | 3.0 | 0.00 | 0.00 | 0.00 | 36 | 1016.1 |
| 20260503172036 | 70 | 29 | 1.0 | 2.0 | 0.00 | 0.00 | 0.00 | 36 | 1016.2 |
| 20260503171637 | 69 | 88 | 0.0 | 3.0 | 0.00 | 0.00 | 0.00 | 37 | 1016.3 |
| 20260503171028 | 69 | 34 | 1.0 | 4.0 | 0.00 | 0.00 | 0.00 | 37 | 1016.4 |
| 20260503170545 | 68 | 67 | 1.0 | 4.0 | 0.00 | 0.00 | 0.00 | 39 | 1016.4 |
| 20260503170133 | 68 | 340 | 2.0 | 3.0 | 0.00 | 0.00 | 0.00 | 38 | 1016.4 |
| 20260503160130 | 62 | 71 | 0.0 | 3.0 | 0.00 | 0.00 | 0.00 | 45 | 1017.1 |
| 20260503150541 | 54 | 296 | 0.0 | 1.0 | 0.00 | 0.00 | 0.00 | 56 | 1017.5 |
| 20260503150143 | 54 | 279 | 0.0 | 1.0 | 0.00 | 0.00 | 0.00 | 59 | 1017.5 |
| 20260503140132 | 49 | 259 | 1.0 | 3.0 | 0.00 | 0.00 | 0.00 | 69 | 1017.7 |
| 20260503131103 | 47 | 254 | 1.0 | 3.0 | 0.00 | 0.00 | 0.00 | 71 | 1017.8 |
| 20260503130603 | 47 | 248 | 1.0 | 4.0 | 0.00 | 0.00 | 0.00 | 70 | 1017.9 |
| 20260503130146 | 47 | 236 | 2.0 | 5.0 | 0.00 | 0.00 | 0.00 | 70 | 1017.7 |
| 20260503120109 | 48 | 244 | 2.0 | 3.0 | 0.00 | 0.00 | 0.00 | 69 | 1017.7 |
| 20260503110521 | 48 | 254 | 2.0 | 4.0 | 0.00 | 0.00 | 0.00 | 69 | 1017.8 |
| 20260503110109 | 49 | 238 | 3.0 | 4.0 | 0.00 | 0.00 | 0.00 | 68 | 1018.0 |
| 20260503100146 | 50 | 227 | 2.0 | 4.0 | 0.00 | 0.00 | 0.00 | 67 | 1017.9 |
| 20260503090135 | 50 | 229 | 3.0 | 5.0 | 0.00 | 0.00 | 0.00 | 67 | 1017.8 |
| 20260503081621 | 50 | 231 | 3.0 | 4.0 | 0.00 | 0.00 | 0.00 | 67 | 1017.9 |
| 20260503081116 | 51 | 249 | 2.0 | 5.0 | 0.00 | 0.00 | 0.00 | 66 | 1017.9 |
| 20260503080541 | 51 | 256 | 2.0 | 5.0 | 0.00 | 0.00 | 0.00 | 65 | 1017.8 |
| 20260503080133 | 51 | 236 | 2.0 | 4.0 | 0.00 | 0.00 | 0.00 | 65 | 1017.7 |
| 20260503072559 | 51 | 234 | 3.0 | 5.0 | 0.00 | 0.00 | 0.00 | 65 | 1017.5 |
| 20260503072115 | 51 | 230 | 3.0 | 5.0 | 0.00 | 0.00 | 0.00 | 66 | 1017.5 |
| 20260503071636 | 51 | 253 | 2.0 | 4.0 | 0.00 | 0.00 | 0.00 | 66 | 1017.4 |
| 20260503071110 | 52 | 246 | 2.0 | 4.0 | 0.00 | 0.00 | 0.00 | 65 | 1017.4 |
| 20260503070529 | 52 | 233 | 2.0 | 4.0 | 0.00 | 0.00 | 0.00 | 65 | 1017.5 |
| 20260503070138 | 52 | 240 | 2.0 | 5.0 | 0.00 | 0.00 | 0.00 | 65 | 1017.5 |